Time,TemperatureF,DewpointF,PressureIn,WindDirection,WindDirectionDegrees,WindSpeedMPH,WindSpeedGustMPH,Humidity,HourlyPrecipIn,Conditions,Clouds,dailyrainin,SoftwareType,DateUTC
2013-03-01 00:02:00,23.0,13.0,30.17,WNW,290,2.0,5.0,66,0.00,,,0.00,,2013-03-01 06:02:00,
2013-03-01 00:11:00,23.0,14.0,30.17,SW,234,0.0,2.0,69,0.00,,,0.00,,2013-03-01 06:11:00,
2013-03-01 00:22:00,23.0,14.0,30.17,SW,234,0.0,2.0,69,0.00,,,0.00,,2013-03-01 06:22:00,
2013-03-01 00:32:00,23.0,14.0,30.17,West,263,0.0,3.0,69,0.00,,,0.00,,2013-03-01 06:32:00,
2013-03-01 00:42:00,23.0,14.0,30.17,West,263,0.0,3.0,69,0.00,,,0.00,,2013-03-01 06:42:00,
2013-03-01 00:52:00,23.0,14.0,30.17,NW,318,1.0,3.0,69,0.00,,,0.00,,2013-03-01 06:52:00,
2013-03-01 01:01:00,23.0,14.0,30.18,NNW,329,1.0,5.0,68,0.00,,,0.00,,2013-03-01 07:01:00,
2013-03-01 01:11:00,23.0,14.0,30.18,NNW,329,1.0,5.0,68,0.00,,,0.00,,2013-03-01 07:11:00,
2013-03-01 01:21:00,23.0,14.0,30.18,NW,310,0.0,3.0,69,0.00,,,0.00,,2013-03-01 07:21:00,
2013-03-01 01:32:00,23.0,14.0,30.19,North,5,0.0,3.0,69,0.00,,,0.00,,2013-03-01 07:32:00,
2013-03-01 01:42:00,23.0,14.0,30.19,North,5,0.0,3.0,69,0.00,,,0.00,,2013-03-01 07:42:00,
2013-03-01 01:51:00,23.0,14.0,30.19,NW,304,0.0,1.0,69,0.00,,,0.00,,2013-03-01 07:51:00,
2013-03-01 02:01:00,23.0,14.0,30.19,WSW,241,0.0,3.0,69,0.00,,,0.00,,2013-03-01 08:01:00,
2013-03-01 02:11:00,23.0,14.0,30.19,WSW,241,0.0,3.0,69,0.00,,,0.00,,2013-03-01 08:11:00,
2013-03-01 02:22:00,23.0,14.0,30.19,North,5,0.0,2.0,69,0.00,,,0.00,,2013-03-01 08:22:00,
2013-03-01 02:32:00,23.0,15.0,30.19,West,273,0.0,1.0,70,0.00,,,0.00,,2013-03-01 08:32:00,
2013-03-01 02:42:00,23.0,15.0,30.19,West,273,0.0,1.0,70,0.00,,,0.00,,2013-03-01 08:42:00,
2013-03-01 02:52:00,23.0,15.0,30.19,West,273,0.0,1.0,70,0.00,,,0.00,,2013-03-01 08:52:00,
2013-03-01 03:02:00,23.0,15.0,30.19,West,266,0.0,2.0,70,0.00,,,0.00,,2013-03-01 09:02:00,
2013-03-01 03:12:00,23.0,15.0,30.19,West,266,0.0,2.0,70,0.00,,,0.00,,2013-03-01 09:12:00,
2013-03-01 03:22:00,23.0,14.0,30.19,SSW,198,0.0,0.0,69,0.00,,,0.00,,2013-03-01 09:22:00,
2013-03-01 03:32:00,23.0,14.0,30.19,NW,304,0.0,1.0,69,0.00,,,0.00,,2013-03-01 09:32:00,
2013-03-01 03:42:00,23.0,14.0,30.19,NW,304,0.0,1.0,69,0.00,,,0.00,,2013-03-01 09:42:00,
2013-03-01 03:52:00,23.0,14.0,30.19,WNW,284,0.0,0.0,69,0.00,,,0.00,,2013-03-01 09:52:00,
2013-03-01 04:02:00,23.0,14.0,30.19,NNE,19,0.0,2.0,69,0.00,,,0.00,,2013-03-01 10:02:00,
2013-03-01 04:11:00,23.0,14.0,30.19,NNE,19,0.0,2.0,69,0.00,,,0.00,,2013-03-01 10:11:00,
2013-03-01 04:21:00,23.0,14.0,30.19,NNW,338,0.0,1.0,69,0.00,,,0.00,,2013-03-01 10:21:00,
2013-03-01 04:32:00,22.0,13.0,30.20,North,5,0.0,3.0,69,0.00,,,0.00,,2013-03-01 10:32:00,
2013-03-01 04:42:00,22.0,13.0,30.20,North,5,0.0,3.0,69,0.00,,,0.00,,2013-03-01 10:42:00,
2013-03-01 04:52:00,22.0,14.0,30.20,NNE,14,1.0,3.0,70,0.00,,,0.00,,2013-03-01 10:52:00,
2013-03-01 05:01:00,22.0,14.0,30.21,NNE,16,0.0,3.0,70,0.00,,,0.00,,2013-03-01 11:01:00,
2013-03-01 05:11:00,22.0,14.0,30.21,NNE,16,0.0,3.0,70,0.00,,,0.00,,2013-03-01 11:11:00,
2013-03-01 05:22:00,22.0,14.0,30.21,NNE,18,1.0,3.0,70,0.00,,,0.00,,2013-03-01 11:22:00,
2013-03-01 05:32:00,22.0,13.0,30.22,North,355,2.0,3.0,69,0.00,,,0.00,,2013-03-01 11:32:00,
2013-03-01 05:42:00,22.0,13.0,30.22,North,355,2.0,3.0,69,0.00,,,0.00,,2013-03-01 11:42:00,
2013-03-01 05:52:00,22.0,13.0,30.22,NNE,22,1.0,3.0,69,0.00,,,0.00,,2013-03-01 11:52:00,
2013-03-01 06:01:00,22.0,13.0,30.22,NNE,13,2.0,6.0,69,0.00,,,0.00,,2013-03-01 12:01:00,
2013-03-01 06:11:00,22.0,13.0,30.22,NNE,13,2.0,6.0,69,0.00,,,0.00,,2013-03-01 12:11:00,
2013-03-01 06:21:00,22.0,13.0,30.23,NNW,342,1.0,6.0,69,0.00,,,0.00,,2013-03-01 12:21:00,
2013-03-01 06:32:00,22.0,13.0,30.23,WNW,302,0.0,3.0,69,0.00,,,0.00,,2013-03-01 12:32:00,
2013-03-01 06:42:00,22.0,13.0,30.23,WNW,302,0.0,3.0,69,0.00,,,0.00,,2013-03-01 12:42:00,
2013-03-01 06:52:00,22.0,13.0,30.23,WSW,254,0.0,3.0,69,0.00,,,0.00,,2013-03-01 12:52:00,
2013-03-01 07:01:00,22.0,13.0,30.24,WSW,244,0.0,5.0,69,0.00,,,0.00,,2013-03-01 13:01:00,
2013-03-01 07:11:00,22.0,14.0,30.24,West,273,1.0,5.0,70,0.00,,,0.00,,2013-03-01 13:11:00,
2013-03-01 07:21:00,22.0,14.0,30.24,West,273,1.0,5.0,70,0.00,,,0.00,,2013-03-01 13:21:00,
2013-03-01 07:32:00,22.0,13.0,30.25,WNW,289,0.0,3.0,69,0.00,,,0.00,,2013-03-01 13:32:00,
2013-03-01 07:41:00,22.0,13.0,30.25,WNW,289,0.0,3.0,69,0.00,,,0.00,,2013-03-01 13:41:00,
2013-03-01 07:51:00,22.0,13.0,30.25,NNW,339,0.0,2.0,69,0.00,,,0.00,,2013-03-01 13:51:00,
2013-03-01 08:01:00,22.0,13.0,30.26,NNE,20,1.0,3.0,69,0.00,,,0.00,,2013-03-01 14:01:00,
2013-03-01 08:11:00,22.0,13.0,30.26,NNE,20,1.0,3.0,69,0.00,,,0.00,,2013-03-01 14:11:00,
2013-03-01 08:21:00,22.0,14.0,30.26,NW,304,0.0,2.0,70,0.00,,,0.00,,2013-03-01 14:21:00,
2013-03-01 08:32:00,23.0,15.0,30.26,NNW,327,0.0,3.0,70,0.00,,,0.00,,2013-03-01 14:32:00,
2013-03-01 08:41:00,23.0,15.0,30.26,NNW,327,0.0,3.0,70,0.00,,,0.00,,2013-03-01 14:41:00,
2013-03-01 08:52:00,22.0,13.0,30.26,NNW,343,2.0,5.0,69,0.00,,,0.00,,2013-03-01 14:52:00,
2013-03-01 09:01:00,22.0,13.0,30.26,North,4,2.0,6.0,69,0.00,,,0.00,,2013-03-01 15:01:00,
2013-03-01 09:11:00,22.0,13.0,30.27,North,6,3.0,8.0,69,0.00,,,0.00,,2013-03-01 15:11:00,
2013-03-01 09:21:00,22.0,13.0,30.27,North,6,3.0,8.0,69,0.00,,,0.00,,2013-03-01 15:21:00,
2013-03-01 09:31:00,21.0,12.0,30.27,NNE,25,4.0,9.0,69,0.00,,,0.00,,2013-03-01 15:31:00,
2013-03-01 09:42:00,21.0,12.0,30.27,NNE,25,4.0,9.0,69,0.00,,,0.00,,2013-03-01 15:42:00,
2013-03-01 09:52:00,22.0,13.0,30.27,North,5,4.0,10.0,69,0.00,,,0.00,,2013-03-01 15:52:00,
2013-03-01 10:01:00,22.0,13.0,30.28,North,10,3.0,7.0,68,0.00,,,0.00,,2013-03-01 16:01:00,
2013-03-01 10:11:00,22.0,13.0,30.28,North,10,3.0,7.0,68,0.00,,,0.00,,2013-03-01 16:11:00,
2013-03-01 10:21:00,22.0,13.0,30.28,North,9,0.0,8.0,68,0.00,,,0.00,,2013-03-01 16:21:00,
2013-03-01 10:32:00,22.0,13.0,30.28,North,0,1.0,6.0,67,0.00,,,0.00,,2013-03-01 16:32:00,
2013-03-01 10:41:00,22.0,13.0,30.28,North,0,1.0,6.0,67,0.00,,,0.00,,2013-03-01 16:41:00,
2013-03-01 10:51:00,22.0,13.0,30.29,NNE,15,2.0,7.0,67,0.00,,,0.00,,2013-03-01 16:51:00,
2013-03-01 11:01:00,23.0,14.0,30.29,NNE,18,2.0,3.0,67,0.00,,,0.00,,2013-03-01 17:01:00,
2013-03-01 11:11:00,23.0,13.0,30.29,West,261,1.0,6.0,65,0.00,,,0.00,,2013-03-01 17:11:00,
2013-03-01 11:21:00,23.0,13.0,30.29,West,261,1.0,6.0,65,0.00,,,0.00,,2013-03-01 17:21:00,
2013-03-01 11:31:00,24.0,13.0,30.28,WNW,300,1.0,6.0,63,0.00,,,0.00,,2013-03-01 17:31:00,
2013-03-01 11:41:00,25.0,13.0,30.28,NE,47,1.0,3.0,60,0.00,,,0.00,,2013-03-01 17:41:00,
2013-03-01 11:52:00,25.0,13.0,30.28,NE,47,1.0,3.0,60,0.00,,,0.00,,2013-03-01 17:52:00,
2013-03-01 12:01:00,25.0,14.0,30.28,NNW,344,1.0,5.0,62,0.00,,,0.00,,2013-03-01 18:01:00,
2013-03-01 12:12:00,25.0,14.0,30.28,NNW,344,1.0,5.0,62,0.00,,,0.00,,2013-03-01 18:12:00,
2013-03-01 12:22:00,26.0,14.0,30.27,NE,38,1.0,5.0,59,0.00,,,0.00,,2013-03-01 18:22:00,
2013-03-01 12:31:00,27.0,14.0,30.27,North,10,2.0,9.0,58,0.00,,,0.00,,2013-03-01 18:31:00,
2013-03-01 12:41:00,28.0,15.0,30.26,North,7,1.0,7.0,57,0.00,,,0.00,,2013-03-01 18:41:00,
2013-03-01 12:52:00,28.0,15.0,30.26,North,7,1.0,7.0,57,0.00,,,0.00,,2013-03-01 18:52:00,
2013-03-01 13:01:00,28.0,14.0,30.26,WNW,295,0.0,5.0,56,0.00,,,0.00,,2013-03-01 19:01:00,
2013-03-01 13:11:00,28.0,14.0,30.26,WNW,295,0.0,5.0,56,0.00,,,0.00,,2013-03-01 19:11:00,
2013-03-01 13:21:00,28.0,14.0,30.25,WSW,253,1.0,3.0,56,0.00,,,0.00,,2013-03-01 19:21:00,
2013-03-01 13:31:00,28.0,13.0,30.25,North,357,2.0,7.0,53,0.00,,,0.00,,2013-03-01 19:31:00,
2013-03-01 13:42:00,28.0,13.0,30.25,North,357,2.0,7.0,53,0.00,,,0.00,,2013-03-01 19:42:00,
2013-03-01 13:52:00,28.0,13.0,30.25,North,9,2.0,9.0,52,0.00,,,0.00,,2013-03-01 19:52:00,
2013-03-01 14:01:00,28.0,13.0,30.24,NNE,18,2.0,3.0,52,0.00,,,0.00,,2013-03-01 20:01:00,
2013-03-01 14:11:00,28.0,13.0,30.24,NNE,18,2.0,3.0,52,0.00,,,0.00,,2013-03-01 20:11:00,
2013-03-01 14:21:00,28.0,12.0,30.24,North,351,2.0,5.0,51,0.00,,,0.00,,2013-03-01 20:21:00,
2013-03-01 14:31:00,29.0,14.0,30.24,NW,315,1.0,7.0,52,0.00,,,0.00,,2013-03-01 20:31:00,
2013-03-01 14:41:00,29.0,14.0,30.24,NW,315,1.0,7.0,52,0.00,,,0.00,,2013-03-01 20:41:00,
2013-03-01 14:52:00,29.0,13.0,30.24,NNW,335,2.0,6.0,50,0.00,,,0.00,,2013-03-01 20:52:00,
2013-03-01 15:01:00,29.0,12.0,30.24,North,354,2.0,8.0,49,0.00,,,0.00,,2013-03-01 21:01:00,
2013-03-01 15:11:00,30.0,13.0,30.24,North,355,0.0,3.0,49,0.00,,,0.00,,2013-03-01 21:11:00,
2013-03-01 15:21:00,30.0,13.0,30.24,North,355,0.0,3.0,49,0.00,,,0.00,,2013-03-01 21:21:00,
2013-03-01 15:31:00,30.0,13.0,30.24,WNW,293,1.0,3.0,48,0.00,,,0.00,,2013-03-01 21:31:00,
2013-03-01 15:41:00,30.0,14.0,30.24,NNE,14,0.0,3.0,50,0.00,,,0.00,,2013-03-01 21:41:00,
2013-03-01 15:51:00,30.0,14.0,30.24,NNE,14,0.0,3.0,50,0.00,,,0.00,,2013-03-01 21:51:00,
2013-03-01 16:01:00,31.0,13.0,30.24,North,1,1.0,3.0,47,0.00,,,0.00,,2013-03-01 22:01:00,
2013-03-01 16:11:00,30.0,14.0,30.24,North,351,0.0,5.0,50,0.00,,,0.00,,2013-03-01 22:11:00,
2013-03-01 16:21:00,30.0,14.0,30.24,North,351,0.0,5.0,50,0.00,,,0.00,,2013-03-01 22:21:00,
2013-03-01 16:31:00,30.0,12.0,30.24,North,9,3.0,5.0,47,0.00,,,0.00,,2013-03-01 22:31:00,
2013-03-01 16:41:00,30.0,12.0,30.24,North,9,3.0,5.0,47,0.00,,,0.00,,2013-03-01 22:41:00,
2013-03-01 16:51:00,30.0,12.0,30.24,NW,307,1.0,7.0,47,0.00,,,0.00,,2013-03-01 22:51:00,
2013-03-01 17:01:00,29.0,12.0,30.24,WNW,303,0.0,5.0,48,0.00,,,0.00,,2013-03-01 23:01:00,
2013-03-01 17:11:00,29.0,12.0,30.24,WNW,303,0.0,5.0,48,0.00,,,0.00,,2013-03-01 23:11:00,
2013-03-01 17:21:00,29.0,13.0,30.24,North,11,0.0,2.0,50,0.00,,,0.00,,2013-03-01 23:21:00,
2013-03-01 17:31:00,29.0,13.0,30.24,NNW,343,0.0,1.0,50,0.00,,,0.00,,2013-03-01 23:31:00,
2013-03-01 17:41:00,29.0,13.0,30.24,NNW,343,0.0,1.0,50,0.00,,,0.00,,2013-03-01 23:41:00,
2013-03-01 17:52:00,29.0,12.0,30.25,NNE,14,1.0,6.0,49,0.00,,,0.00,,2013-03-01 23:52:00,
2013-03-01 18:02:00,28.0,11.0,30.25,NE,40,0.0,1.0,48,0.00,,,0.00,,2013-03-02 00:02:00,
2013-03-01 18:11:00,28.0,11.0,30.25,NE,40,0.0,1.0,48,0.00,,,0.00,,2013-03-02 00:11:00,
2013-03-01 18:21:00,28.0,11.0,30.25,NNE,19,0.0,0.0,49,0.00,,,0.00,,2013-03-02 00:21:00,
2013-03-01 18:31:00,27.0,10.0,30.26,NNE,19,0.0,0.0,49,0.00,,,0.00,,2013-03-02 00:31:00,
2013-03-01 18:42:00,27.0,11.0,30.26,NNE,19,0.0,0.0,51,0.00,,,0.00,,2013-03-02 00:42:00,
2013-03-01 18:52:00,27.0,11.0,30.26,NNE,19,0.0,0.0,51,0.00,,,0.00,,2013-03-02 00:52:00,
2013-03-01 19:01:00,26.0,10.0,30.26,NNE,19,0.0,1.0,51,0.00,,,0.00,,2013-03-02 01:01:00,
2013-03-01 19:11:00,26.0,10.0,30.26,NNE,19,0.0,1.0,51,0.00,,,0.00,,2013-03-02 01:11:00,
2013-03-01 19:21:00,26.0,12.0,30.27,North,9,0.0,3.0,54,0.00,,,0.00,,2013-03-02 01:21:00,
2013-03-01 19:31:00,26.0,12.0,30.26,NNE,14,2.0,5.0,55,0.00,,,0.00,,2013-03-02 01:31:00,
2013-03-01 19:41:00,26.0,12.0,30.26,NNE,14,2.0,5.0,55,0.00,,,0.00,,2013-03-02 01:41:00,
2013-03-01 19:51:00,26.0,13.0,30.27,North,11,2.0,6.0,58,0.00,,,0.00,,2013-03-02 01:51:00,
2013-03-01 20:01:00,26.0,14.0,30.27,NNE,17,1.0,3.0,60,0.00,,,0.00,,2013-03-02 02:01:00,
2013-03-01 20:11:00,26.0,14.0,30.27,NNE,17,1.0,3.0,60,0.00,,,0.00,,2013-03-02 02:11:00,
2013-03-01 20:21:00,25.0,13.0,30.27,North,0,2.0,6.0,61,0.00,,,0.00,,2013-03-02 02:21:00,
2013-03-01 20:32:00,25.0,14.0,30.27,North,6,1.0,8.0,62,0.00,,,0.00,,2013-03-02 02:32:00,
2013-03-01 20:41:00,25.0,14.0,30.27,North,6,1.0,8.0,62,0.00,,,0.00,,2013-03-02 02:41:00,
2013-03-01 20:52:00,24.0,13.0,30.28,NNE,13,3.0,5.0,63,0.00,,,0.00,,2013-03-02 02:52:00,
2013-03-01 21:01:00,23.0,13.0,30.28,NNE,19,1.0,3.0,64,0.00,,,0.00,,2013-03-02 03:01:00,
2013-03-01 21:11:00,23.0,13.0,30.28,NNE,19,1.0,3.0,64,0.00,,,0.00,,2013-03-02 03:11:00,
2013-03-01 21:21:00,23.0,13.0,30.28,North,8,0.0,3.0,65,0.00,,,0.00,,2013-03-02 03:21:00,
2013-03-01 21:32:00,22.0,12.0,30.28,North,9,1.0,7.0,66,0.00,,,0.00,,2013-03-02 03:32:00,
2013-03-01 21:41:00,22.0,12.0,30.28,North,9,1.0,7.0,66,0.00,,,0.00,,2013-03-02 03:41:00,
2013-03-01 21:52:00,22.0,13.0,30.28,NNE,19,1.0,3.0,67,0.00,,,0.00,,2013-03-02 03:52:00,
2013-03-01 22:01:00,21.0,12.0,30.29,North,5,1.0,7.0,69,0.00,,,0.00,,2013-03-02 04:01:00,
2013-03-01 22:11:00,20.0,11.0,30.29,North,356,0.0,3.0,69,0.00,,,0.00,,2013-03-02 04:11:00,
2013-03-01 22:21:00,20.0,11.0,30.29,North,356,0.0,3.0,69,0.00,,,0.00,,2013-03-02 04:21:00,
2013-03-01 22:32:00,20.0,12.0,30.28,NE,34,0.0,1.0,71,0.00,,,0.00,,2013-03-02 04:32:00,
2013-03-01 22:42:00,20.0,12.0,30.28,NE,34,0.0,1.0,71,0.00,,,0.00,,2013-03-02 04:42:00,
2013-03-01 22:51:00,19.0,11.0,30.29,NNE,28,0.0,0.0,71,0.00,,,0.00,,2013-03-02 04:51:00,
2013-03-01 23:01:00,19.0,11.0,30.29,NW,323,0.0,1.0,72,0.00,,,0.00,,2013-03-02 05:01:00,
2013-03-01 23:12:00,19.0,11.0,30.29,NW,323,0.0,1.0,72,0.00,,,0.00,,2013-03-02 05:12:00,
2013-03-01 23:22:00,19.0,12.0,30.29,North,5,0.0,3.0,73,0.00,,,0.00,,2013-03-02 05:22:00,
2013-03-01 23:32:00,18.0,11.0,30.29,West,261,0.0,0.0,74,0.00,,,0.00,,2013-03-02 05:32:00,
2013-03-01 23:41:00,18.0,11.0,30.29,West,261,0.0,0.0,74,0.00,,,0.00,,2013-03-02 05:41:00,
2013-03-01 23:52:00,17.0,10.0,30.29,West,261,0.0,0.0,74,0.00,,,0.00,,2013-03-02 05:52:00,